Current weather by "City, St" or "zip code"  
 

Current Conditions: Keesler Air Force Base / Biloxi, MS

Fair


50.0 F

Last Updated on Oct 31 2020, 12:56 am CDT
Humidity: 86%
Wind Speed: N 6.9 mph
Barometer 30.19 in
Dewpoint: 46.4 F
Visibility: 10.00 mi
Precip: --
Heat Index: NA
Wind Chill: 47 F
Current conditions at:

Keesler Air Force Base / Biloxi, MS (KBIX)

Lat: 30.41667 Lon: 88.91667

Local Radar Image active severe weather and emergency alerts image image weather storm and storm spotter reports image weather observation monitoring service image
Local
Radar
Active
Alerts
Storm Reports Obs
Monitoring

Sign-up For Email & Text Message Weather Alert Notification Services



Advertise Here

Observation History for Keesler Air Force Base / Biloxi, MS


Time Wind
(mph)
Vis
(mi)
Weather Precip (in) Temperature (F) Relative
Humidity
Wind
Chill
(F)
Heat
Index
(F)
Pressure
Air Dwpt altimeter
(in)
sea level
(mb)
Rmks
12:56 am CDT N 6.9 10.00 Fair -- 50.0 46.4 86% 47 NA 30.19 1022.6
11:56 pm CDT N 6.9 10.00 Fair -- 51.0 47.1 86% 48 NA 30.20 1023.0
10:56 pm CDT NE 6.9 10.00 Fair -- 53.0 47.5 83% 51 NA 30.20 1023.0
9:56 pm CDT NE 6.9 10.00 Fair -- 53.0 47.3 81% 51 NA 30.20 1023.0
8:56 pm CDT NE 6.9 10.00 Fair -- 54.0 47.3 79% 52 NA 30.19 1022.6
7:56 pm CDT NE 3.5 10.00 Fair -- 55.0 48.6 78% NA NA 30.18 1022.3
6:56 pm CDT N 10.4 10.00 Fair -- 58.0 48.0 70% 56 NA 30.16 1021.6
5:56 pm CDT N 8.1 10.00 Fair -- 60.0 47.5 63% 59 NA 30.15 1021.3
4:56 pm CDT N 12.7 10.00 Fair -- 62.0 47.3 58% 60 NA 30.14 1020.9
3:56 pm CDT N 9.2 10.00 Fair -- 63.0 47.3 56% 62 NA 30.13 1020.6
2:56 pm CDT N 9.2 10.00 Fair -- 62.0 47.3 59% 61 NA 30.13 1020.6
1:56 pm CDT N 11.5 10.00 A Few Clouds -- 61.0 47.5 61% 59 NA 30.15 1021.3
12:56 pm CDT N 12.7 10.00 Mostly Cloudy -- 60.0 47.3 64% 58 NA 30.17 1022.0
11:56 am CDT N 12.7 G 18.4 10.00 Overcast -- 56.0 46.0 69% 53 NA 30.19 1022.6
10:56 am CDT N 9.2 10.00 Overcast -- 53.0 45.7 75% 50 NA 30.20 1023.0
9:56 am CDT NE 9.2 G 19.6 10.00 Overcast -- 52.0 44.8 76% 49 NA 30.20 1023.0
8:56 am CDT N 15.0 G 20.7 10.00 Overcast -- 51.0 44.6 78% 46 NA 30.19 1022.6
7:56 am CDT NE 15.0 G 21.9 10.00 Overcast -- 51.0 45.0 79% 46 NA 30.16 1021.6
6:56 am CDT N 16.1 G 20.7 10.00 Overcast -- 53.0 46.2 79% 48 NA 30.13 1020.6
5:56 am CDT N 15.0 10.00 Overcast -- 53.0 45.5 77% 48 NA 30.11 1019.9
4:56 am CDT N 10.4 G 16.1 10.00 Overcast -- 52.0 45.5 79% 48 NA 30.09 1019.2
3:56 am CDT N 11.5 10.00 Overcast -- 51.0 45.5 82% 47 NA 30.08 1018.9
2:56 am CDT N 9.2 10.00 Fair -- 51.0 44.8 79% 48 NA 30.08 1018.9
1:56 am CDT N 9.2 10.00 Fair -- 52.0 44.8 77% 49 NA 30.08 1018.9

Regional Weather Observation


Keesler Air Force Base / Biloxi, MS (KBIX)

Fair
50.0 F

Bay St. Louis, Stennis International Airport, MS (KHSA)

Fair
63.0 F

Bogalusa, George R Carr Memorial Air Field, LA (KBXA)

Fair
47.0 F

Moss Point - Trent Lott International Airport, MS (KPQL)

Fair
50.0 F

Mobile, Mobile Regional Airport, AL (KMOB)

Fair
48.0 F

Mobile, Mobile Downtown Airport, AL (KBFM)

Fair
50.0 F